Theta_e
317 318 319 319 320 320 319 319 319 320 319 319 320 319 319 319 319 320 319 316 315 317 318 319 319 319 320 320 318 315 312 312 313 313 313 311 310 309 308 308 307 306 306 307 307 306 306 306 306 308 309 310 313 314 313 314 315 315 315 315 315 314 315 315 315 314 314 314 313 313 314 313 313 313 312 312 311 311 312 314 314 312 310 309 309 309
316 318 320 320 320 320 320 319 319 319 318 318 319 319 319 319 320 320 318 315 315 316 318 319 319 319 319 319 320 317 313 313 314 314 314 312 310 309 308 308 307 306 307 307 306 305 305 306 307 308 309 310 313 314 313 314 314 313 314 315 315 315 315 315 314 313 312 311 312 311 311 310 309 309 309 308 308 307 307 307 307 307 306 306 306 305
317 318 319 320 320 319 319 318 318 318 318 318 319 319 320 320 320 320 317 314 314 315 317 319 318 319 319 318 320 319 315 315 315 314 314 313 311 310 309 308 307 306 306 306 305 305 305 306 307 308 309 310 312 313 314 315 315 314 315 315 315 315 315 315 313 312 310 310 310 309 308 307 307 306 306 306 305 305 305 305 305 305 305 305 304 304
319 319 319 320 319 318 317 317 317 317 317 318 319 319 319 320 321 320 317 314 314 314 317 318 317 318 318 318 319 319 316 315 313 312 312 311 310 310 308 307 306 305 305 305 305 304 304 306 307 308 309 310 311 313 314 314 315 314 315 314 315 315 314 313 311 310 309 308 308 307 306 306 305 305 305 305 304 304 304 304 304 303 303 303 303 303
321 319 318 319 318 317 318 317 317 317 318 319 319 319 319 320 320 319 318 315 314 315 315 316 317 319 320 320 320 316 312 311 310 309 309 309 309 309 308 307 306 305 305 304 304 304 304 306 307 307 308 310 311 313 314 314 314 314 314 313 313 313 311 310 308 307 307 306 306 305 305 305 304 304 304 304 303 303 303 302 302 302 302 302 301 301
320 317 316 317 316 317 318 317 318 318 319 320 320 320 319 320 320 319 319 317 318 319 316 316 321 322 321 322 321 315 311 312 310 309 309 309 308 307 306 306 305 304 304 303 303 303 304 305 306 307 308 309 311 313 314 314 314 313 313 312 310 309 308 307 306 306 305 305 304 304 304 304 303 303 303 303 302 302 302 301 301 301 301 300 300 300
318 315 315 317 317 317 318 318 319 318 319 321 321 319 318 319 319 319 318 318 321 322 317 315 320 323 321 321 321 315 313 313 311 309 310 309 308 307 306 305 304 304 303 302 303 303 304 305 306 307 308 309 310 312 313 313 312 311 309 308 307 306 305 305 305 304 304 304 304 303 303 303 302 302 302 301 301 301 301 300 300 300 299 299 298 298
317 315 315 317 317 318 318 318 319 318 319 321 320 318 318 318 319 319 319 319 320 321 317 315 318 321 321 321 320 316 315 316 313 311 310 310 309 307 306 306 304 303 303 302 303 304 305 306 306 307 307 309 310 311 311 310 309 307 306 305 305 304 304 304 303 303 303 303 302 302 301 301 301 301 301 300 300 300 300 299 299 298 298 297 297 296
317 316 317 317 317 318 319 319 319 317 318 320 316 316 317 317 319 319 319 320 319 320 320 318 318 320 321 321 320 318 317 319 318 315 312 310 309 307 306 306 304 303 302 303 304 304 305 306 306 307 307 308 309 309 308 307 306 305 304 304 303 303 303 302 302 302 302 301 301 301 300 300 300 300 300 300 299 299 298 298 297 296 296 295 295 295
316 314 315 316 318 319 317 316 317 317 318 317 315 316 316 316 317 318 319 320 319 319 321 320 319 321 322 321 320 319 318 319 320 318 314 311 308 307 306 305 303 302 302 303 304 305 305 305 306 306 307 308 308 307 305 305 304 304 303 302 302 302 302 302 301 301 300 300 300 300 300 300 299 299 299 299 298 298 297 296 296 295 295 294 294 294
313 310 312 315 316 317 314 312 313 315 315 315 316 317 317 317 316 317 317 318 319 321 321 320 319 320 322 322 320 320 318 319 319 316 313 310 308 307 306 304 303 302 302 303 304 304 305 305 305 306 306 306 306 305 304 303 303 302 302 302 301 301 301 301 300 300 300 299 299 299 299 299 299 299 298 298 297 297 296 295 295 294 294 293 293 293
314 313 314 314 314 314 314 312 311 312 314 316 317 318 319 319 317 317 318 317 321 324 321 319 319 320 322 322 320 320 317 316 316 315 312 310 308 307 305 304 302 302 302 303 304 305 305 305 305 306 305 305 304 304 303 302 302 301 301 301 301 301 300 300 300 299 299 299 299 298 298 298 298 298 297 297 297 296 295 295 294 294 293 293 292 292
317 316 316 314 312 313 316 316 313 312 313 316 317 318 321 322 320 321 321 318 321 322 316 314 318 321 321 320 320 320 316 313 313 313 312 310 308 307 305 304 302 302 303 303 304 305 305 305 305 305 304 304 303 303 302 301 301 301 301 301 301 300 300 300 299 299 299 298 298 298 298 298 298 297 297 296 296 295 295 294 294 293 293 293 292 292
320 319 317 315 313 313 315 318 316 315 314 315 318 319 322 324 325 325 324 322 323 319 312 312 316 319 319 318 319 318 314 310 310 309 310 310 308 306 305 303 302 302 303 303 304 305 305 305 305 304 303 303 302 302 301 301 301 301 301 300 300 300 300 299 299 298 298 298 298 298 298 297 297 297 296 296 295 295 294 294 293 293 293 293 292 292
323 322 318 317 316 314 314 317 319 318 315 315 318 319 321 324 326 327 325 324 324 318 312 313 316 318 318 316 314 312 308 307 306 306 307 308 307 306 304 303 302 302 302 303 304 304 305 304 303 303 302 302 301 301 301 301 301 300 300 300 300 299 299 299 299 298 298 298 298 298 297 297 297 296 296 295 295 294 294 294 293 293 293 292 292 292
323 324 319 316 315 314 315 317 318 319 317 316 317 319 321 321 323 323 320 318 317 317 314 314 316 318 317 314 310 307 307 306 305 305 305 306 306 305 304 303 302 302 302 303 303 304 304 303 302 302 301 301 301 301 301 301 300 300 300 300 299 299 299 299 298 298 298 298 298 297 297 297 296 296 296 295 295 294 294 294 293 293 293 292 292 292
322 322 317 314 313 313 314 316 316 318 318 317 317 319 318 317 319 321 319 315 314 319 320 316 315 316 316 315 310 307 307 306 305 306 306 306 306 305 304 303 302 302 302 303 303 303 303 302 302 301 301 301 301 301 301 300 300 300 300 299 299 299 299 298 298 298 297 297 297 297 297 297 296 296 295 295 295 294 294 294 293 293 293 292 292 292
322 321 315 313 315 312 310 313 314 315 316 316 317 318 316 315 316 318 320 319 319 322 322 318 318 318 318 318 313 309 309 307 306 306 306 306 305 305 305 303 303 302 302 303 303 303 302 302 301 301 301 301 301 301 301 300 300 299 299 299 298 298 298 298 298 298 297 297 297 297 297 296 296 296 295 295 294 294 294 294 294 293 293 292 292 292
321 322 316 312 314 311 308 312 315 313 313 314 315 316 316 318 318 318 320 322 323 324 323 320 319 318 319 318 314 313 313 311 307 306 306 306 305 305 305 304 303 302 302 302 302 302 302 301 301 301 301 301 301 300 300 300 299 299 299 298 298 298 298 298 298 297 297 297 297 297 296 296 296 295 295 294 294 294 294 294 294 293 293 292 292 291
318 322 319 311 311 311 310 313 316 315 313 311 312 315 316 318 318 319 320 320 322 323 323 323 321 319 319 318 316 316 315 313 310 307 306 307 306 305 305 304 304 303 302 303 303 302 302 302 302 302 302 301 301 300 300 300 299 299 298 298 298 297 297 297 297 297 297 296 296 296 296 296 296 295 294 294 294 294 294 294 293 293 293 292 291 291
317 319 320 312 309 312 313 314 316 317 315 312 313 315 316 316 315 316 318 319 319 321 323 323 322 320 318 317 318 317 316 315 312 309 308 308 307 306 306 305 304 303 303 304 303 303 303 302 302 302 301 301 300 300 300 299 299 298 298 298 298 297 297 297 297 297 296 296 296 295 295 295 295 295 294 294 294 294 294 293 293 293 292 291 290 290
317 318 320 315 311 313 315 314 314 315 315 314 314 315 316 316 316 317 320 319 318 319 321 321 323 321 316 314 315 316 317 316 313 311 309 309 308 307 306 305 304 304 304 305 304 304 303 302 302 302 301 301 300 300 299 299 298 298 298 297 297 297 297 296 296 296 296 295 295 295 294 294 294 294 294 293 293 293 293 293 292 292 291 290 290 289
317 317 318 318 315 315 314 311 310 311 312 313 314 315 317 317 317 319 322 320 317 317 318 318 320 320 313 310 310 311 313 313 313 313 311 309 309 307 306 305 305 305 305 305 305 304 304 303 302 302 301 300 300 299 299 299 298 298 298 297 297 297 296 296 295 295 295 295 294 294 294 293 293 292 292 292 292 292 292 291 291 291 290 290 289 289
316 316 317 319 317 315 312 311 310 310 310 313 314 314 316 317 318 319 318 317 317 318 318 318 320 320 312 308 308 306 306 308 309 311 311 309 308 307 306 305 305 305 305 305 305 304 304 303 302 301 301 300 300 299 299 298 298 298 298 297 297 297 296 296 295 294 294 294 293 293 293 292 292 291 291 291 291 290 290 290 290 290 289 289 289 289
316 317 317 319 320 318 316 314 313 311 311 313 314 314 315 316 318 318 315 314 317 319 319 319 321 320 312 307 306 306 305 306 307 307 308 308 307 306 305 305 304 304 304 304 304 304 304 303 302 302 301 300 300 299 299 299 298 298 298 297 297 296 296 295 295 294 294 293 293 292 292 292 291 290 290 290 290 290 289 289 289 289 289 289 288 288
318 318 317 319 322 323 322 320 318 315 312 312 313 314 315 315 317 318 316 316 318 320 319 320 320 318 312 308 308 307 307 307 307 305 305 306 306 305 304 304 304 304 304 304 304 304 304 303 302 302 301 301 300 300 299 299 298 298 298 297 297 296 296 295 294 294 293 292 292 292 291 291 290 289 289 289 289 289 289 289 289 288 288 288 288 288
316 318 318 320 322 323 323 323 320 318 315 314 314 314 315 316 316 317 317 318 319 319 319 320 319 317 313 310 310 310 308 309 308 306 304 304 304 304 304 304 304 304 305 305 304 304 303 303 303 302 302 301 300 300 299 299 299 298 297 297 296 296 296 295 294 294 293 292 291 291 290 290 289 289 289 289 289 289 288 288 288 288 288 288 288 288
314 317 318 319 320 321 322 321 319 318 317 316 316 315 314 315 316 317 317 318 318 318 319 319 320 320 316 312 312 312 309 309 309 308 306 304 304 304 303 303 303 304 304 304 304 304 304 304 304 303 301 301 300 300 300 299 299 298 297 297 296 296 296 295 294 293 293 292 291 291 290 290 289 289 288 288 288 288 288 288 288 288 288 288 288 289
315 317 318 319 319 318 319 319 317 317 317 317 317 316 315 314 315 316 316 317 317 318 319 319 320 320 317 313 312 312 310 309 310 310 308 306 305 304 303 303 304 304 304 305 305 305 305 305 304 303 302 301 301 300 300 299 299 298 297 297 297 296 296 296 294 293 292 291 291 291 290 289 289 289 288 288 288 288 288 288 288 288 288 288 288 289
314 315 317 319 319 318 318 318 317 316 317 317 317 317 316 315 315 315 315 315 316 317 318 319 319 319 317 315 313 312 311 311 310 309 308 306 305 304 304 304 305 305 306 307 307 307 307 305 304 303 302 302 301 300 300 299 299 298 297 297 297 297 297 295 294 293 292 292 292 291 290 289 289 288 288 288 288 288 287 287 288 287 288 288 288 289
312 314 317 318 318 318 318 317 318 317 316 317 317 317 317 316 315 315 315 314 315 316 316 317 318 318 316 315 313 312 311 310 309 308 307 306 305 304 305 306 306 307 308 308 308 307 307 306 304 303 303 302 302 301 300 299 299 298 297 297 297 297 297 295 294 293 292 292 292 291 290 290 289 288 288 288 287 287 287 287 287 287 288 288 288 288
312 314 317 317 317 318 317 317 318 316 315 316 316 316 316 316 315 314 314 314 314 315 315 316 317 316 315 315 312 308 308 308 307 306 306 305 305 306 307 307 307 308 308 307 307 307 306 306 305 305 304 303 302 301 300 300 299 298 298 297 297 298 297 295 294 293 293 293 293 292 291 290 288 288 288 287 287 287 287 287 287 287 287 288 288 288
312 313 314 315 317 318 317 317 317 315 315 316 316 316 315 315 315 314 314 314 314 314 315 316 316 315 313 314 313 309 307 307 306 306 306 305 306 307 308 308 308 308 307 307 307 307 307 306 305 305 304 303 302 301 301 300 299 299 298 298 298 298 296 295 295 295 295 295 294 292 291 289 288 288 288 287 287 287 287 287 287 287 287 287 288 288
311 313 313 314 317 317 316 316 315 315 318 317 315 316 316 315 315 314 314 314 313 313 314 314 315 316 312 312 314 311 308 308 308 308 308 307 307 307 307 307 307 307 307 307 307 306 305 304 303 303 302 302 302 301 301 300 299 299 298 298 298 297 296 296 296 297 296 295 293 291 290 289 288 288 288 287 287 287 287 287 287 287 287 287 287 287
310 311 312 313 315 315 313 314 316 318 318 314 309 310 313 314 314 314 314 313 312 312 313 313 313 314 311 309 310 309 307 308 309 308 307 307 308 308 307 306 306 306 306 306 304 303 303 302 302 302 302 302 302 301 300 300 299 298 297 297 297 297 297 297 297 297 296 295 293 292 291 290 289 289 288 288 287 287 287 287 287 287 287 287 287 287
311 311 312 313 314 313 312 315 319 318 316 310 305 304 309 313 314 314 314 314 312 312 312 312 311 311 308 306 307 307 306 306 306 305 305 306 307 307 306 306 306 305 305 304 303 302 302 301 300 300 300 300 300 300 300 300 299 298 297 297 297 297 297 297 296 296 295 294 294 293 292 291 290 290 290 289 288 288 288 288 287 287 287 286 287 287
313 312 312 313 314 314 313 315 316 317 318 313 306 305 309 312 313 314 315 315 314 312 312 311 310 310 306 303 303 304 304 304 303 304 305 306 306 305 305 305 305 304 303 302 301 300 299 298 298 298 298 298 298 299 299 300 300 299 298 298 297 297 297 297 296 296 295 294 294 293 292 292 292 291 291 290 289 289 289 289 288 287 287 287 287 287
311 312 313 314 315 315 315 315 315 316 318 315 309 306 306 307 310 314 315 315 314 312 310 310 311 311 307 301 299 301 303 304 305 305 305 306 305 305 304 303 303 302 301 300 299 298 297 297 297 297 297 297 298 298 298 298 299 298 298 297 297 297 296 296 296 296 295 295 294 294 293 293 292 292 291 291 290 289 289 289 288 288 288 288 288 288
307 309 311 313 314 314 314 316 316 316 316 313 307 303 302 304 309 312 314 314 312 308 307 310 311 308 305 300 298 301 304 307 308 307 306 306 305 304 303 302 301 300 298 298 297 297 296 296 296 296 297 297 297 297 297 297 296 296 295 295 295 295 294 294 294 294 294 294 294 294 293 293 292 292 291 290 290 289 289 289 289 289 288 288 288 288
306 308 309 311 313 313 313 314 315 314 313 309 303 300 300 303 306 312 314 312 308 304 304 308 309 305 302 299 299 302 306 308 308 305 303 303 303 302 301 300 299 298 297 297 296 296 296 296 296 296 297 297 297 297 296 295 295 294 294 294 293 293 293 293 293 293 293 293 294 294 293 293 292 291 290 290 289 289 289 289 289 288 288 288 288 288
306 307 308 311 312 312 313 314 313 313 312 306 301 298 299 302 306 312 313 308 302 300 302 305 306 305 302 300 300 303 306 306 304 302 301 300 300 299 299 299 298 297 297 296 296 296 296 296 297 297 297 297 296 295 295 294 294 293 293 293 293 293 292 292 291 291 292 292 292 292 292 291 291 290 290 289 289 289 288 288 288 288 288 288 288 287
307 307 307 309 311 312 312 313 313 313 309 303 299 297 298 304 310 309 305 301 299 300 302 304 305 305 304 302 302 303 304 303 302 301 300 299 298 297 297 297 296 296 296 296 296 296 296 297 297 297 296 295 294 293 293 293 293 293 292 292 292 292 291 291 291 291 291 291 291 290 290 290 289 289 289 288 288 288 288 288 288 288 288 288 287 287
308 308 308 309 310 310 310 311 313 313 306 299 299 300 300 305 308 303 298 298 299 300 302 302 302 303 304 304 303 303 302 300 300 299 298 297 296 296 296 296 295 296 296 295 296 296 296 296 295 295 293 293 292 292 292 292 292 292 292 291 291 291 290 290 290 290 290 290 290 290 290 289 289 289 288 288 288 289 289 288 288 288 288 288 287 287
308 309 309 309 309 310 311 311 310 308 303 299 301 303 303 302 302 300 299 298 298 299 301 300 299 300 301 302 302 301 299 299 298 297 296 295 295 295 295 295 295 295 295 295 295 295 295 294 293 292 292 292 292 291 292 292 292 291 291 291 291 291 290 290 290 290 290 290 290 290 289 289 289 289 289 289 289 289 289 288 288 288 288 288 287 287
307 306 305 308 308 307 308 307 303 300 299 299 299 301 301 300 299 299 300 299 298 299 299 298 298 299 299 300 300 299 298 298 297 296 295 295 294 294 294 294 294 294 294 294 294 293 293 293 292 292 292 292 291 291 291 292 291 291 291 291 291 291 290 290 290 290 290 290 290 290 289 289 289 289 289 289 289 289 288 288 288 288 288 287 287 287
300 299 301 304 305 303 302 300 297 297 298 298 298 299 299 299 298 299 299 299 299 299 298 298 299 298 298 298 298 298 298 297 296 295 294 294 294 294 294 294 293 293 293 293 293 293 292 292 292 292 292 292 292 291 291 291 291 291 291 291 291 291 291 290 290 290 290 290 290 290 289 289 289 289 289 289 289 289 288 288 288 288 288 287 287 287
298 297 299 302 304 305 303 298 295 296 297 296 297 298 298 298 298 299 298 298 298 298 298 298 298 297 297 298 297 297 297 296 295 294 294 294 294 294 293 293 293 293 293 293 293 293 292 292 292 292 292 292 292 291 291 291 291 291 291 291 291 291 291 290 290 290 290 290 290 290 290 290 289 289 289 289 289 289 288 288 288 288 287 287 287 287
300 299 300 301 301 301 299 294 292 294 295 296 296 297 297 298 299 298 298 298 297 297 297 297 297 297 297 297 296 296 296 295 294 294 294 294 294 294 293 293 293 293 293 293 293 293 292 292 292 292 292 292 291 291 291 291 291 291 291 291 291 291 291 290 290 290 290 290 290 290 290 290 290 289 289 289 289 289 288 288 288 288 288 287 287 287
300 299 300 301 299 297 295 293 293 294 295 295 296 296 296 298 299 298 298 297 297 297 297 296 297 296 296 296 296 295 295 295 294 294 294 294 293 293 293 293 293 293 293 293 293 293 292 292 292 292 292 292 291 291 291 291 291 291 291 291 291 291 290 290 290 290 290 290 290 290 290 289 289 289 289 289 289 288 288 288 288 288 287 287 287 286
298 300 299 299 299 299 298 295 295 297 297 296 296 296 297 298 299 298 297 297 297 296 296 296 296 296 295 295 295 295 295 294 294 293 293 293 293 293 293 293 293 293 293 293 292 292 292 292 292 292 292 292 291 291 291 291 291 291 291 291 291 290 290 290 290 290 290 290 290 290 289 289 289 289 289 289 288 288 288 288 288 287 287 287 286 285
298 299 299 299 300 300 298 296 296 297 297 297 297 298 298 298 298 297 297 297 297 296 296 295 295 295 295 295 295 294 294 294 294 293 293 293 293 293 293 293 293 293 292 292 292 292 292 292 292 292 291 291 291 291 291 291 291 291 291 291 291 290 290 290 290 290 290 290 290 289 289 289 289 289 288 288 288 288 288 288 288 287 287 286 286 285
Wind_Speed
6 6 6 8 8 9 11 13 13 9 5 6 7 8 9 8 8 6 1 4 1 4 9 11 12 14 14 13 10 14 16 14 15 14 13 11 10 9 9 9 11 11 13 13 10 9 10 10 11 11 11 10 9 9 10 10 10 10 10 9 10 10 11 11 9 9 9 8 8 8 9 9 9 8 7 8 8 9 8 8 7 7 7 8 7 6
5 7 9 12 11 9 8 10 12 9 6 8 8 8 8 8 9 6 3 4 3 3 9 12 13 16 14 14 15 11 14 14 17 17 15 14 11 10 10 11 12 13 15 13 11 11 11 12 13 13 12 11 11 10 10 10 10 10 11 11 10 10 11 11 10 9 9 10 10 10 10 11 12 13 13 14 15 15 15 13 13 12 13 13 12 12
6 9 12 13 7 4 4 5 9 10 9 9 7 7 8 6 8 5 5 5 3 3 7 10 11 15 14 14 17 14 16 16 17 17 15 14 14 12 13 14 14 15 15 13 13 12 12 13 14 14 13 12 12 12 12 12 11 12 12 12 11 11 10 10 10 10 11 13 14 14 15 16 18 18 17 17 18 17 16 15 15 14 14 13 13 13
6 7 11 11 5 4 5 6 7 8 8 8 7 7 7 6 6 5 4 4 5 5 6 9 9 12 14 14 17 15 13 10 9 11 11 12 13 12 14 16 15 16 15 14 13 13 13 15 16 15 14 13 12 14 14 14 13 14 14 13 12 11 10 10 11 13 14 16 17 18 20 20 20 20 19 18 18 17 15 15 14 13 13 12 12 12
9 2 3 7 7 7 8 7 8 7 7 9 10 9 8 8 8 7 3 2 5 8 7 7 9 10 12 14 14 6 4 3 5 8 10 13 14 13 14 17 15 14 14 14 13 13 15 16 17 16 15 14 14 15 16 15 15 15 14 14 13 12 13 13 14 16 17 19 20 20 21 20 20 19 18 17 16 15 14 13 12 12 11 10 10 10
11 3 6 6 6 7 9 7 9 8 7 8 10 12 12 12 11 10 6 2 5 7 5 5 7 6 4 8 8 6 5 6 8 11 13 16 17 16 15 15 15 15 14 13 13 14 17 18 18 16 16 16 15 16 16 15 15 15 15 15 15 15 17 18 19 19 20 20 20 20 19 18 18 17 16 15 14 13 12 11 10 10 9 8 8 8
4 5 5 6 6 7 8 8 9 9 8 7 4 7 12 12 11 11 8 4 5 5 2 4 7 6 3 6 5 7 7 9 10 12 15 17 17 17 15 13 15 17 16 15 14 16 19 19 18 17 18 17 17 17 17 16 16 16 17 17 18 19 19 20 21 21 20 19 18 17 16 15 15 14 14 13 12 11 10 9 9 8 8 8 8 8
4 7 5 6 7 7 8 9 9 10 8 5 2 0 6 8 9 9 8 7 6 6 2 6 6 7 8 10 6 7 7 9 11 12 14 16 17 17 16 14 15 17 18 17 16 18 20 19 20 20 19 19 19 19 19 19 19 20 20 20 21 21 21 21 20 19 18 17 16 14 13 13 12 11 11 11 10 9 8 8 8 8 7 8 8 8
4 8 8 9 9 8 8 6 6 11 9 2 4 2 1 2 5 6 7 7 6 6 6 7 6 6 8 8 7 8 9 12 13 13 14 16 17 17 17 16 16 17 17 17 19 20 21 22 22 22 21 21 21 22 22 22 22 23 23 23 23 22 22 21 19 18 17 16 14 12 11 10 11 10 9 10 9 8 8 7 7 7 7 8 8 8
3 2 3 7 8 7 4 2 2 7 6 2 5 4 4 1 1 2 5 5 5 7 8 8 9 7 8 6 7 7 8 12 10 7 10 16 17 17 17 17 17 17 18 18 21 22 23 24 24 24 24 24 24 25 25 25 25 25 24 23 23 22 22 21 20 18 16 15 13 11 9 8 9 9 8 8 8 8 7 6 6 6 7 7 8 8
4 3 2 3 4 1 4 7 6 1 3 7 5 3 2 2 2 2 4 3 5 9 10 12 14 10 7 4 6 6 3 5 4 4 8 13 17 18 18 19 19 19 21 22 23 24 25 26 26 26 27 27 27 27 27 27 26 26 25 24 23 22 22 21 20 18 16 14 12 11 9 8 8 8 7 7 7 7 6 5 6 6 6 7 7 7
4 3 1 3 2 3 6 5 4 3 4 5 4 3 3 3 2 3 5 4 7 10 5 8 13 14 9 4 5 4 3 3 2 5 8 12 16 18 18 19 20 21 24 25 26 27 28 28 28 29 29 29 29 29 29 28 27 26 25 24 23 22 21 20 19 17 15 13 12 11 10 8 7 7 7 6 6 6 5 5 5 5 6 6 6 6
5 8 6 4 4 7 6 3 3 2 3 5 5 6 5 4 3 5 5 5 8 6 1 2 7 10 11 8 9 5 4 5 3 5 7 13 17 18 18 19 20 23 26 27 28 30 31 31 32 32 32 32 31 30 30 28 27 26 25 24 22 21 20 18 17 16 14 13 12 11 9 8 7 6 6 6 5 5 5 4 4 4 4 4 5 5
3 6 9 7 4 11 12 7 5 4 6 9 8 7 7 5 6 8 7 7 7 3 2 2 3 6 7 7 13 10 4 8 6 7 7 12 16 17 18 19 21 24 27 29 31 32 34 34 35 35 34 34 33 32 30 29 27 26 24 24 22 21 20 18 17 16 14 13 12 10 9 8 7 6 6 5 5 5 5 4 3 3 3 3 3 3
6 3 9 10 6 14 17 13 9 5 7 11 8 7 8 6 7 8 6 7 5 1 2 3 4 5 4 2 3 3 7 8 7 7 8 11 13 16 17 18 22 26 29 31 34 35 36 37 36 36 36 35 34 32 31 29 28 26 25 24 22 20 19 18 17 16 15 13 12 10 9 8 7 6 6 5 5 5 4 4 3 3 2 2 1 2
8 5 8 8 5 14 17 14 11 6 5 7 6 8 9 6 6 7 3 1 2 2 2 5 4 5 3 2 5 6 6 7 7 7 9 11 12 15 17 18 23 28 31 34 36 36 37 38 38 37 36 35 34 33 31 30 28 27 25 24 22 20 19 18 17 16 15 14 12 11 9 8 7 6 6 6 6 6 5 4 3 2 2 1 1 1
6 3 6 5 3 9 8 8 11 7 3 5 7 9 4 1 3 6 2 2 0 7 5 6 5 5 3 3 6 7 5 7 7 7 9 11 13 14 15 18 24 29 33 36 37 38 39 39 38 38 37 36 35 33 32 31 29 27 26 24 22 21 20 19 18 17 16 14 13 11 10 9 8 7 7 7 6 6 5 4 3 3 3 2 3 4
4 2 4 5 5 4 2 1 6 3 1 4 6 6 3 3 3 4 5 2 4 10 6 6 9 7 6 5 5 7 6 7 8 8 9 11 13 14 15 19 24 28 33 37 38 39 39 40 39 38 37 36 35 34 33 31 30 28 26 25 23 21 20 19 19 18 17 15 14 12 11 10 9 9 8 8 7 6 5 5 5 4 4 4 5 5
4 3 3 3 2 4 3 1 4 4 3 1 1 1 3 3 5 5 5 5 7 10 7 7 11 9 8 6 6 9 11 11 11 10 10 11 14 16 17 19 22 26 33 38 39 40 40 40 40 39 38 37 35 34 33 32 31 29 27 25 24 22 21 20 20 19 18 16 15 13 12 11 11 10 10 9 8 8 7 7 7 7 7 7 7 7
4 5 3 0 1 5 5 5 7 8 6 1 2 3 3 2 4 5 6 4 6 8 8 8 9 7 8 9 11 14 14 13 14 12 11 13 17 19 20 22 25 29 36 40 42 42 42 41 40 40 39 38 37 35 34 33 32 30 28 27 26 25 23 22 21 20 18 17 16 15 14 13 13 12 11 11 10 10 9 10 9 9 9 9 10 10
4 5 4 0 1 4 6 8 11 11 9 6 6 8 6 3 1 3 5 5 5 7 7 8 8 5 3 6 12 16 16 15 15 12 10 13 18 19 20 25 31 34 38 42 43 43 43 42 41 41 40 39 38 36 35 34 33 31 30 29 28 26 24 23 22 20 19 18 18 17 16 15 15 14 14 13 12 12 12 12 11 11 12 12 12 12
5 5 5 3 4 7 7 6 7 6 7 9 9 10 10 8 5 4 8 7 5 6 6 6 9 6 1 1 3 8 10 11 13 13 11 14 19 20 22 27 33 37 38 41 44 44 44 44 43 42 42 41 39 38 37 36 34 33 32 30 29 27 25 24 23 21 21 20 20 19 18 18 17 16 16 15 14 14 14 14 14 14 14 14 14 13
4 2 6 6 6 6 3 3 2 1 1 4 6 8 9 9 9 9 8 4 4 6 5 5 9 5 2 2 3 2 2 5 11 14 12 14 18 21 23 26 30 34 37 39 43 44 44 45 45 45 44 42 40 39 39 37 36 34 33 31 30 29 27 26 24 23 22 22 21 21 20 20 19 18 18 17 16 16 15 15 15 15 15 15 14 14
4 1 6 6 4 3 3 3 2 2 1 5 7 8 9 10 11 8 4 0 3 7 5 5 9 5 2 1 2 3 3 4 8 11 13 13 15 18 22 24 27 31 34 38 42 44 45 45 46 46 45 43 42 42 40 38 37 35 34 33 32 30 29 27 26 24 24 23 23 23 22 21 21 20 19 18 17 16 16 16 16 16 16 15 15 13
6 3 4 3 5 5 4 4 4 3 4 7 9 9 9 8 6 3 1 1 6 9 8 7 10 4 3 1 1 1 1 3 5 8 12 13 13 16 20 23 26 29 33 38 41 43 45 46 48 48 46 45 44 44 42 40 38 37 36 35 34 32 30 28 27 26 25 25 25 24 23 22 22 21 19 19 18 17 17 17 17 17 16 15 15 13
9 5 7 7 8 9 9 7 5 6 5 5 7 11 13 13 12 7 3 5 9 9 8 10 10 2 3 1 2 2 3 4 5 7 10 12 12 15 19 24 27 30 33 37 40 43 45 47 49 49 48 47 46 44 43 41 40 40 38 37 35 32 31 30 28 28 27 27 27 25 24 23 23 22 20 20 19 18 18 18 18 18 17 16 15 14
2 2 11 14 13 14 13 7 3 6 7 8 13 17 17 17 17 10 6 9 10 6 9 15 12 4 4 6 6 5 5 5 5 7 10 14 15 16 19 23 26 30 33 35 38 41 44 46 48 49 48 48 47 45 45 44 43 42 41 38 36 34 33 31 30 30 29 29 27 26 25 25 24 22 22 21 20 20 20 20 19 19 18 17 16 14
1 4 14 17 18 19 18 9 5 8 11 14 17 19 18 16 16 15 14 16 11 7 12 15 13 11 11 11 11 8 7 6 7 9 12 16 18 18 19 20 22 25 29 32 35 38 41 44 47 48 49 48 48 47 46 45 45 44 42 40 37 35 34 33 32 31 30 29 28 27 26 26 24 23 23 22 22 21 21 21 21 20 19 18 16 15
1 8 13 14 17 21 20 12 7 9 11 12 13 17 18 18 20 21 21 20 15 13 14 9 14 17 14 13 14 11 10 11 11 12 12 14 18 19 19 20 21 23 26 29 32 34 37 41 44 47 49 49 49 48 48 48 47 45 43 40 38 36 35 34 33 31 30 29 29 28 27 27 26 25 25 24 23 23 23 23 22 21 20 19 17 15
3 7 10 11 14 20 20 15 10 8 9 11 12 15 16 21 25 24 22 22 20 22 20 10 11 16 12 13 15 14 14 13 11 11 12 14 17 19 20 22 23 24 26 27 29 30 32 36 41 44 46 48 50 50 50 50 49 46 44 41 39 37 36 35 33 32 31 30 29 28 28 29 28 27 26 25 24 24 24 24 23 22 21 20 18 17
5 5 5 6 8 15 17 16 14 12 11 13 13 14 17 21 23 22 22 21 19 23 24 13 9 11 7 8 9 12 14 11 9 11 14 15 18 21 22 23 24 25 26 26 26 26 28 32 35 38 42 45 49 51 51 52 50 47 44 41 39 38 37 36 34 32 31 29 28 29 31 31 29 28 27 26 25 26 26 25 25 24 22 21 20 20
7 4 0 3 7 14 15 15 15 11 9 11 16 21 23 19 16 18 20 19 19 22 21 14 12 9 6 7 5 8 11 11 10 12 14 14 18 21 22 24 25 25 24 22 22 24 27 29 31 33 36 39 44 47 49 51 49 46 43 41 40 38 37 36 33 32 31 30 31 33 33 31 29 29 29 28 27 27 27 26 26 25 24 23 22 22
7 6 4 5 8 12 11 9 9 4 4 10 17 22 22 16 13 15 18 21 22 20 16 14 13 8 7 8 6 5 5 8 11 15 18 19 20 21 23 25 24 23 21 20 23 25 26 27 26 26 27 28 31 35 39 44 45 45 45 43 40 38 37 34 32 31 32 33 35 35 32 30 30 30 29 29 28 28 27 27 27 27 26 25 25 25
7 8 7 6 6 9 5 7 5 5 10 11 8 8 14 18 18 17 19 22 20 16 12 9 5 5 8 9 10 9 10 13 18 22 25 25 25 24 25 24 22 21 22 24 26 24 22 21 19 18 17 17 19 22 26 31 36 40 42 40 38 37 36 34 32 33 34 35 36 34 32 31 30 30 30 29 29 28 28 28 29 29 29 28 27 27
9 9 7 5 4 4 4 7 5 9 11 6 3 3 7 14 19 19 19 20 18 16 14 11 4 6 9 11 11 15 18 20 21 23 24 25 27 26 24 24 22 23 25 25 23 21 19 18 16 15 15 16 17 19 21 23 26 31 35 35 35 35 34 33 32 33 33 34 35 34 33 31 30 29 29 29 29 29 28 29 30 30 31 30 30 29
10 9 5 4 4 1 4 8 8 6 3 1 3 3 3 5 12 14 15 18 18 16 14 15 11 5 6 8 9 11 15 16 16 18 22 24 24 23 22 22 23 25 25 23 21 19 18 16 15 16 17 18 18 19 19 20 21 25 28 30 32 32 31 30 30 30 31 32 34 33 32 31 29 29 28 28 29 29 29 29 30 31 31 31 31 30
10 10 6 5 6 5 6 9 5 6 6 3 3 4 4 4 10 13 12 14 15 13 13 14 11 6 8 8 9 10 11 10 7 11 19 23 23 22 21 22 23 23 22 20 19 17 16 15 15 16 16 17 18 18 19 19 20 22 25 26 27 27 27 27 28 28 29 31 31 31 31 30 29 28 27 28 29 29 29 30 30 30 31 31 31 31
6 8 9 8 6 5 7 8 5 7 8 5 3 4 2 1 4 9 8 7 5 8 14 13 10 8 9 8 10 12 9 5 3 7 17 24 24 22 21 22 21 20 19 18 17 16 16 16 17 16 16 17 17 17 17 18 19 20 21 21 21 22 23 24 24 25 26 27 28 28 29 28 28 27 27 28 29 29 29 29 29 30 30 30 31 32
0 1 5 6 4 5 7 7 7 7 4 2 2 1 2 3 6 7 2 4 1 5 14 14 9 9 11 12 14 13 7 4 5 7 13 20 22 23 22 21 21 19 18 18 17 16 17 18 17 17 17 17 17 16 16 16 16 17 17 17 18 19 20 21 21 21 22 23 24 26 26 27 27 27 28 28 29 28 28 28 28 29 29 30 31 32
3 2 4 5 5 7 8 7 5 3 1 1 2 2 2 2 8 9 2 4 2 4 11 13 9 10 16 19 17 10 6 7 5 4 8 11 14 18 20 20 19 18 17 17 17 17 17 17 17 17 17 16 16 16 15 15 15 16 16 16 17 18 19 19 19 19 19 20 21 23 24 25 26 27 28 28 27 26 26 27 27 28 28 28 29 30
4 3 4 6 7 8 9 7 3 1 1 2 1 4 5 3 4 6 4 2 5 7 8 10 12 15 21 23 17 11 13 13 8 4 6 6 8 13 16 17 17 17 17 17 17 17 16 16 16 16 16 16 15 14 14 14 15 16 16 17 18 19 19 19 18 18 19 19 20 22 23 24 25 26 26 26 25 24 24 24 24 24 25 26 27 28
4 3 3 5 6 5 5 5 2 1 3 4 3 3 6 4 2 4 3 4 9 12 10 11 14 17 22 25 22 18 18 17 12 8 6 5 7 11 13 15 17 18 17 17 17 16 17 16 16 16 15 14 14 14 14 15 16 17 18 19 20 20 18 18 18 19 20 20 21 21 22 23 24 25 24 24 23 23 23 22 22 23 23 25 26 27
4 5 4 5 5 3 2 4 4 2 3 12 11 4 2 2 4 10 11 6 8 13 14 13 14 16 20 23 24 21 16 13 12 9 8 8 9 11 13 15 16 17 17 17 17 17 17 17 16 15 14 13 14 14 15 17 18 18 20 21 20 17 16 18 19 20 22 22 23 23 23 24 24 24 24 23 23 23 23 23 23 23 24 26 27 27
3 4 3 3 4 4 3 5 2 2 7 16 10 3 3 5 11 21 19 9 8 13 14 12 10 12 15 18 20 20 15 12 12 10 10 12 12 12 14 15 15 16 16 17 17 17 17 16 15 13 12 12 12 13 16 18 19 20 22 21 18 15 16 18 21 23 24 24 24 24 24 24 24 24 24 24 24 25 26 26 25 25 26 27 27 28
1 1 0 1 2 1 2 3 1 2 11 15 4 5 14 16 16 20 19 14 13 12 11 11 9 10 14 17 19 19 17 14 13 13 13 13 13 14 14 14 14 15 16 17 17 17 16 15 13 12 11 11 12 14 16 19 21 23 23 22 18 17 18 20 23 26 26 26 25 25 24 24 24 24 25 26 27 28 28 27 27 27 27 27 27 28
1 2 1 1 1 1 1 3 2 2 10 12 5 11 22 22 17 16 14 13 13 10 10 12 13 14 17 20 20 19 18 16 15 15 15 14 14 15 14 14 14 15 16 17 17 17 16 15 14 14 13 14 15 16 18 21 23 25 25 23 21 21 21 22 25 27 28 28 27 26 26 26 26 27 27 28 29 30 30 29 28 27 27 27 27 28
1 3 1 0 2 2 1 3 3 2 7 9 8 14 20 19 17 13 9 9 10 10 11 14 16 17 20 20 19 18 17 16 15 14 14 14 14 15 15 15 16 16 17 18 18 18 17 17 17 17 17 18 18 18 20 22 25 26 27 26 26 25 24 25 27 29 30 30 30 29 29 29 29 30 30 31 32 33 32 31 30 29 28 27 26 27
3 6 4 2 1 1 1 1 3 2 7 9 9 14 19 18 14 10 7 8 10 12 15 17 19 20 18 17 17 17 14 14 14 13 13 14 14 15 17 17 18 18 19 20 20 20 20 20 20 20 20 20 19 18 20 23 25 28 30 31 32 30 29 29 29 30 31 32 33 33 34 33 33 34 34 34 35 35 35 33 31 30 28 26 25 26
5 6 4 2 2 1 0 1 1 3 5 7 8 13 17 16 11 7 7 10 13 16 18 18 18 18 16 15 16 17 15 14 14 14 15 15 15 16 18 19 20 21 22 22 23 23 22 22 22 22 22 21 19 19 21 23 25 28 32 35 36 35 34 32 32 32 33 34 35 36 37 38 38 38 37 37 38 37 37 35 33 31 29 27 27 27
5 5 3 3 3 3 2 5 7 3 2 8 14 15 16 14 11 10 13 17 18 18 18 17 17 16 15 14 15 16 16 15 15 15 16 16 17 17 18 19 21 23 25 25 25 25 24 24 23 23 23 22 21 21 23 24 25 28 31 35 38 39 39 37 36 35 35 36 37 38 39 40 41 42 41 41 40 40 39 37 35 32 31 31 30 30
6 4 4 4 2 2 4 12 14 5 4 8 18 19 17 16 16 18 20 22 21 18 15 15 16 17 17 16 15 16 16 16 16 16 16 17 17 18 19 19 21 22 25 27 28 27 26 25 24 24 24 24 23 24 26 27 28 29 30 32 35 38 41 41 41 40 40 39 39 39 40 41 43 44 44 43 42 42 41 39 36 35 34 34 33 31
Wind_Direction
191 208 215 225 228 227 223 220 233 258 289 295 290 281 275 270 269 268 163 111 112 258 256 258 264 265 265 263 231 191 188 201 213 214 212 207 204 205 201 213 225 224 234 247 247 238 225 209 204 199 194 184 166 159 153 146 150 152 150 148 149 151 144 141 145 150 159 168 171 170 169 167 158 151 149 132 117 113 121 132 132 128 119 113 112 108
191 223 228 231 239 246 238 226 235 253 265 266 272 274 268 261 268 266 166 133 136 234 265 267 268 268 262 266 263 217 184 203 213 215 219 211 202 202 204 216 224 227 236 242 240 231 217 203 197 193 191 184 170 164 155 149 150 148 146 144 143 146 142 139 140 141 147 148 144 143 141 136 129 122 118 113 107 104 104 105 106 105 102 99 96 92
211 229 234 238 242 234 232 232 240 249 254 257 258 261 263 260 270 260 159 149 180 219 271 277 272 272 266 263 264 234 201 210 216 217 222 207 196 197 204 213 217 225 234 235 235 228 210 201 194 189 189 186 174 164 158 157 154 150 151 151 148 145 141 137 132 131 131 130 129 127 123 120 117 115 113 110 106 104 102 99 96 92 88 85 80 77
221 234 235 227 196 183 221 227 234 245 248 246 243 247 253 249 258 254 173 157 203 228 276 290 282 274 270 260 256 238 208 200 196 202 208 195 192 195 204 213 214 219 226 226 228 221 206 198 192 187 186 185 177 166 164 166 162 160 160 159 157 150 145 139 131 129 126 125 126 123 120 118 116 113 110 107 102 99 96 92 88 83 80 77 74 71
239 218 169 192 187 213 229 217 217 235 246 238 233 237 249 249 245 249 240 175 224 234 243 271 282 273 261 249 243 219 153 163 181 201 211 204 205 202 202 208 208 209 215 218 219 213 204 197 191 187 183 182 179 171 170 172 169 167 165 163 161 155 148 142 135 131 128 126 126 123 120 118 114 110 108 105 101 100 96 92 88 84 82 77 72 69
242 139 126 179 183 206 224 224 212 218 250 250 231 225 239 255 257 258 269 285 276 260 198 212 272 279 250 238 223 153 157 207 195 208 218 211 208 205 202 202 200 199 200 207 210 204 201 196 190 185 180 180 179 177 177 176 173 170 167 163 159 153 146 141 136 133 130 128 126 122 120 117 113 111 110 109 107 105 101 96 93 86 83 78 71 68
230 134 147 193 189 203 223 238 221 211 243 264 246 216 230 253 262 263 267 259 274 289 156 183 261 282 276 260 223 156 186 204 188 207 214 204 201 199 198 193 196 204 201 198 200 200 200 194 187 182 178 178 177 177 177 175 172 168 163 158 153 147 141 136 133 131 129 127 124 121 118 116 116 116 115 114 112 109 105 100 96 88 83 75 68 65
161 168 183 198 210 221 224 241 226 207 231 259 16 337 226 248 259 256 257 248 261 291 227 192 240 276 273 267 241 176 199 216 202 206 205 199 198 192 190 186 191 206 207 202 200 199 197 190 184 180 176 175 173 173 172 169 166 160 157 152 147 142 137 133 130 128 127 125 122 120 119 119 120 123 122 121 118 112 107 101 95 88 82 74 67 63
141 182 192 198 214 227 226 246 206 195 224 248 62 37 186 270 276 259 253 251 260 276 253 209 204 253 265 258 231 198 224 245 229 211 196 192 192 186 184 181 186 201 205 202 199 196 191 185 181 176 172 172 170 168 165 162 159 155 152 148 145 141 137 135 132 130 129 126 124 121 123 128 129 130 129 126 123 114 109 104 95 88 81 75 67 60
68 171 212 209 218 228 210 37 91 198 222 143 114 87 80 80 292 243 247 256 253 251 251 222 194 229 270 255 216 203 228 245 243 213 179 178 182 181 179 174 178 191 195 194 195 193 188 182 177 171 169 168 166 163 161 159 157 154 151 148 146 144 142 140 137 135 133 129 129 129 132 137 136 136 135 130 125 117 111 104 95 89 80 73 66 60
96 82 347 232 226 217 108 67 32 33 130 136 149 129 123 188 182 210 236 246 257 252 242 223 206 218 268 254 207 213 221 224 214 148 149 165 174 176 174 170 173 184 189 188 190 188 183 177 172 168 166 165 163 162 161 159 157 155 153 151 150 150 149 147 143 141 138 135 139 142 142 143 142 139 136 132 127 120 114 107 99 90 79 73 66 60
183 180 185 184 175 109 109 97 53 58 128 159 186 190 198 214 178 216 224 200 247 256 236 216 207 211 234 238 205 199 121 121 135 141 157 167 171 171 169 168 172 184 188 187 187 184 179 173 169 168 166 164 164 164 163 161 159 158 157 156 156 155 154 152 148 145 144 147 151 153 150 149 148 142 135 132 129 124 118 112 103 92 82 73 65 58
218 216 189 147 167 179 174 161 120 117 188 197 197 191 208 227 211 229 220 202 237 251 93 153 197 214 236 243 242 236 125 117 98 104 150 167 168 167 165 165 171 183 188 187 185 180 176 172 169 168 167 166 166 165 164 163 162 161 161 161 161 162 161 158 154 151 154 160 162 161 157 154 152 143 137 135 132 132 128 121 110 96 82 70 61 51
210 216 188 172 187 192 194 195 181 174 186 194 193 188 200 218 233 245 233 227 239 229 88 123 178 233 257 242 238 238 130 109 98 89 127 159 165 163 161 164 173 182 187 186 183 178 175 173 170 169 168 168 168 167 167 166 165 166 166 167 168 168 167 164 161 161 165 169 169 165 161 158 155 146 141 142 142 143 140 133 120 104 87 68 58 46
219 249 184 182 174 176 192 213 213 183 178 197 198 198 212 218 238 252 246 246 253 160 136 166 172 221 232 149 201 184 108 107 109 108 121 139 154 157 156 164 176 183 186 185 182 178 176 173 172 171 171 170 170 170 170 169 169 171 172 172 173 173 173 169 168 171 173 175 174 170 167 163 159 152 151 154 157 158 154 148 138 124 114 88 66 39
228 260 166 160 139 165 187 215 214 188 177 195 195 212 226 228 248 264 264 256 309 329 204 189 219 248 228 117 113 119 122 128 124 127 136 136 145 154 158 169 180 184 186 185 182 179 176 175 174 174 174 174 174 173 173 174 174 176 177 176 177 178 178 176 177 179 180 180 179 176 173 170 166 164 166 171 173 171 168 164 160 161 171 179 287 318
219 255 137 133 144 172 189 204 194 190 173 170 191 212 215 18 289 265 241 105 9 278 247 180 223 262 252 218 146 137 147 146 140 148 153 147 150 162 169 175 182 186 188 186 182 180 178 177 177 177 177 178 178 178 178 179 179 180 181 181 181 182 182 183 185 186 186 185 184 183 179 177 177 177 181 185 186 183 181 184 191 209 228 249 277 295
218 267 163 171 186 173 29 67 183 206 137 151 196 201 124 47 324 273 262 252 235 259 251 183 216 228 219 223 148 150 175 167 165 168 160 153 161 176 182 181 185 188 190 188 183 182 181 181 181 181 182 182 183 183 183 182 183 184 184 185 185 187 188 190 190 191 191 190 189 189 187 187 188 191 195 196 196 197 200 210 221 234 249 261 273 284
204 246 199 181 184 138 97 160 193 221 217 192 288 199 148 224 231 208 235 258 243 251 259 224 226 224 219 215 158 175 195 182 171 171 169 168 174 185 186 182 183 187 191 189 185 185 185 185 185 186 186 187 187 187 187 187 188 187 187 187 188 191 194 196 196 195 195 195 195 196 195 197 199 201 205 206 208 212 219 228 236 243 253 260 266 272
189 231 225 315 32 133 146 193 197 196 197 234 324 237 208 252 245 216 218 245 247 250 266 253 232 222 223 207 180 188 197 182 170 173 184 182 182 188 184 179 182 187 192 191 188 189 189 188 190 191 191 191 190 191 191 191 191 191 191 192 192 195 197 199 201 200 200 198 200 202 203 205 208 210 212 214 218 223 229 235 239 245 251 255 259 262
167 214 227 47 83 162 177 202 206 198 182 181 208 210 201 193 258 280 245 234 242 248 256 260 253 240 213 198 193 194 193 181 171 170 180 182 182 186 182 182 187 191 195 193 191 193 193 192 193 195 195 195 194 194 194 194 194 194 195 196 197 198 200 202 204 204 204 204 205 208 210 213 215 216 218 221 224 228 233 236 239 243 247 249 253 256
178 203 214 177 182 208 208 198 208 210 187 191 200 200 201 196 188 240 239 218 219 244 247 262 270 262 134 91 222 194 184 174 165 163 168 176 180 182 185 189 194 196 198 197 195 196 197 196 197 199 199 198 197 197 198 197 197 198 198 199 200 201 202 205 207 207 207 208 210 213 215 217 219 221 223 224 227 231 234 237 239 241 244 245 247 252
159 170 221 217 204 208 191 106 82 352 264 243 233 213 208 203 196 213 230 201 181 228 242 268 274 270 97 58 7 34 77 119 143 153 155 163 173 181 189 194 198 201 201 200 199 200 201 199 201 203 202 201 200 201 201 200 201 202 202 203 204 205 206 207 209 210 212 213 215 217 218 220 221 223 224 225 228 232 234 236 238 239 240 243 246 250
93 121 225 239 238 190 127 116 102 61 291 257 245 222 212 217 211 211 239 344 197 218 211 236 255 253 97 76 25 22 24 81 125 142 138 142 163 182 191 194 197 201 202 202 203 204 204 203 204 206 205 203 204 205 205 204 204 205 206 207 208 209 209 210 211 213 215 216 218 220 221 222 224 225 226 227 229 232 234 236 237 238 240 242 244 246
151 183 203 227 248 228 192 195 188 172 202 225 228 215 214 224 213 191 5 313 245 229 201 222 251 244 108 106 26 16 179 133 128 138 137 141 157 177 189 194 197 200 202 204 205 206 207 207 208 210 208 207 207 208 208 207 208 209 209 211 211 212 213 214 214 215 218 220 221 222 224 225 226 226 227 229 231 233 235 237 238 239 241 241 243 246
174 180 172 195 230 228 221 218 196 180 183 211 224 213 211 211 200 195 207 225 240 234 205 225 250 257 93 190 223 210 196 164 135 144 158 165 168 176 187 195 197 199 202 205 207 209 210 211 212 213 212 211 211 212 211 211 212 212 213 214 214 214 216 216 217 218 220 222 224 225 226 227 227 228 229 231 233 235 237 239 239 240 241 241 243 246
168 208 189 206 221 225 234 238 142 135 158 196 212 210 209 209 204 204 218 225 230 234 227 231 234 225 203 214 214 201 200 191 159 164 182 186 184 184 190 195 198 200 204 206 208 211 212 214 216 217 216 215 215 215 215 215 216 215 215 216 216 217 219 220 220 221 222 224 226 227 229 230 230 231 232 234 235 237 239 239 240 240 241 243 245 246
80 230 210 220 227 234 246 248 166 163 191 206 210 209 208 205 202 204 218 225 215 220 245 232 213 220 218 202 207 205 196 202 192 186 191 191 192 192 192 194 196 199 205 208 211 214 216 219 221 220 219 218 218 219 219 220 220 219 219 219 218 219 222 223 224 225 225 227 228 230 231 233 233 233 234 236 237 238 239 238 239 240 241 243 245 246
171 226 220 223 232 242 249 246 212 204 220 220 209 208 204 198 201 207 218 225 212 220 247 217 189 216 215 193 203 203 193 203 199 190 188 188 194 195 192 195 196 198 203 207 212 216 220 223 223 222 221 221 221 221 222 223 223 222 222 222 221 222 225 226 227 227 228 229 231 233 235 235 234 234 235 237 238 238 239 238 238 240 242 243 245 249
186 238 229 213 232 247 245 239 231 224 239 241 223 213 202 198 204 207 215 222 216 227 242 224 204 227 216 188 197 196 198 201 184 174 177 182 193 196 194 196 198 199 203 206 211 216 219 223 225 225 225 224 224 224 225 226 227 225 224 224 224 225 228 230 230 230 231 233 235 237 237 237 236 236 237 238 238 239 239 238 239 241 243 244 247 252
190 238 234 197 236 252 243 237 236 229 237 246 243 232 218 210 208 207 215 219 218 231 240 237 245 248 208 174 177 171 179 177 158 170 179 183 193 193 191 195 199 203 207 209 213 216 220 223 225 226 227 227 227 227 227 229 229 228 227 227 227 229 231 233 233 233 235 238 240 240 240 239 237 237 238 238 238 239 240 239 240 242 244 246 250 255
188 218 231 149 227 250 241 231 232 233 240 250 252 244 231 219 207 206 215 215 213 226 231 228 241 239 166 132 124 136 159 167 168 179 181 187 196 193 195 202 206 210 211 211 215 218 222 225 226 229 230 230 230 230 231 233 232 231 231 231 231 232 234 235 235 238 240 242 243 242 241 240 238 238 239 239 239 241 241 241 241 244 246 249 254 258
183 200 207 175 215 251 242 210 208 218 232 243 247 242 231 218 203 207 217 218 215 218 220 222 233 223 143 137 154 151 163 178 184 187 190 196 201 203 208 211 211 213 213 217 224 227 230 231 232 234 235 235 235 237 238 239 238 236 236 235 235 236 237 238 239 242 245 245 244 243 242 241 239 239 240 241 242 243 242 243 244 246 249 252 255 259
185 200 212 191 216 249 215 136 138 202 222 234 248 245 227 212 203 207 218 220 217 216 221 232 228 154 146 165 175 178 189 197 201 204 204 203 203 205 209 209 210 215 221 228 232 231 229 227 227 230 233 236 239 239 242 243 242 242 241 240 239 239 240 242 243 246 247 246 245 244 242 240 240 241 242 243 244 245 244 245 246 248 251 254 256 260
183 198 210 198 220 245 142 131 178 221 227 245 342 330 243 215 205 210 222 224 217 215 225 239 224 155 170 183 181 184 194 199 203 206 205 204 206 207 207 208 213 220 226 228 224 217 217 220 224 231 234 237 239 237 239 240 241 242 242 240 240 240 243 245 246 247 247 246 245 244 242 241 240 241 244 244 245 246 247 247 249 250 253 255 258 262
180 195 206 201 205 182 144 180 210 238 242 290 329 299 265 202 193 203 226 231 218 209 214 224 222 178 148 163 166 174 185 189 196 202 200 203 210 212 211 214 218 222 223 220 216 218 225 231 234 237 237 237 237 236 235 235 234 236 237 237 238 239 242 243 243 244 244 243 244 244 242 241 240 242 244 245 246 248 248 249 251 253 255 258 261 264
186 192 195 204 199 188 203 212 236 298 284 247 222 198 174 176 185 191 219 234 218 199 197 212 215 163 124 140 147 146 162 173 192 215 212 212 215 214 215 218 221 222 220 219 224 230 233 234 232 229 228 229 230 231 231 230 229 229 231 232 234 235 236 237 238 238 238 238 239 240 240 239 240 243 245 246 247 248 249 252 254 256 259 262 264 267
203 198 194 206 203 190 217 227 236 263 258 236 199 176 137 15 180 180 208 234 208 177 182 194 203 168 139 134 137 134 139 163 211 229 219 216 215 212 215 218 218 219 220 222 227 229 227 227 224 220 220 220 222 222 222 223 223 223 225 226 228 230 231 233 236 235 235 236 236 235 235 237 239 243 245 246 247 248 251 254 257 260 263 265 268 269
194 195 190 207 202 180 208 223 219 228 234 198 189 139 66 71 106 112 189 245 209 174 184 187 190 166 151 152 151 140 137 199 230 224 212 213 214 214 216 215 212 214 216 218 221 221 220 220 218 217 219 217 217 216 214 215 217 219 222 224 225 228 230 233 237 238 239 239 238 235 235 237 239 242 243 244 246 248 252 256 259 262 265 266 268 269
164 167 186 207 211 200 207 221 228 241 264 207 180 132 123 138 117 113 178 242 193 183 191 187 177 161 161 163 158 152 184 214 221 202 189 198 207 212 215 216 212 211 212 212 214 214 213 215 216 218 218 215 215 216 216 219 222 223 226 227 227 230 235 240 243 242 241 239 237 237 237 237 239 240 241 243 246 248 252 255 258 261 262 263 265 266
181 193 197 208 217 213 212 224 247 271 225 222 180 148 151 130 125 157 200 203 171 183 189 181 175 171 170 169 167 184 212 214 212 196 184 191 205 209 213 213 209 207 208 209 210 209 208 211 212 213 213 215 217 221 226 230 231 230 230 230 233 238 243 247 246 242 239 237 234 233 233 234 237 239 240 243 245 245 248 250 253 257 260 261 262 263
175 179 193 211 216 211 217 230 256 284 190 156 118 138 155 145 178 190 150 128 165 175 170 170 178 181 181 183 188 200 210 211 214 218 220 222 214 206 202 198 196 200 204 205 206 206 207 207 207 208 212 218 225 230 235 237 235 234 235 235 240 244 245 245 243 240 239 237 235 234 236 238 241 242 242 242 241 241 245 248 253 258 261 262 263 263
175 176 189 205 196 182 214 208 210 285 165 143 130 119 200 224 159 139 124 118 158 163 160 166 179 186 189 193 199 202 204 203 206 211 211 204 194 189 189 188 191 197 201 203 204 206 206 206 208 213 218 225 233 237 238 238 237 235 236 240 243 245 243 241 241 240 238 237 238 241 244 245 244 242 241 240 241 243 247 250 254 259 261 263 264 265
195 188 199 209 186 178 203 195 202 318 168 158 145 115 167 165 145 140 136 136 155 158 159 166 179 190 195 200 203 203 203 202 202 198 192 186 182 182 185 188 193 199 204 207 208 207 208 211 214 219 226 233 240 243 241 240 239 236 239 245 248 246 243 241 240 239 238 240 243 246 246 244 242 240 240 242 244 246 248 251 254 258 261 263 264 265
218 151 153 227 180 167 189 177 13 17 165 166 141 97 133 137 139 141 138 139 151 159 168 178 189 199 206 211 209 205 205 206 201 194 188 185 187 189 191 196 203 207 209 210 210 211 214 219 222 227 236 245 249 248 245 242 240 241 246 252 252 250 248 244 241 241 242 244 247 248 246 243 241 242 243 245 247 248 250 252 255 257 260 262 263 265
41 69 6 340 141 87 83 132 78 106 161 161 134 131 139 137 138 141 137 143 158 173 185 194 205 212 216 219 215 210 212 210 199 192 191 193 196 199 202 208 212 215 216 214 215 219 222 228 235 238 246 255 257 253 248 243 243 247 254 257 254 253 252 248 246 246 247 248 249 249 247 246 245 246 248 248 250 250 251 253 255 256 259 260 262 265
160 157 176 247 166 170 142 116 75 95 159 154 137 145 149 144 143 147 149 159 179 195 203 210 219 221 224 226 221 215 216 209 197 194 197 203 209 212 216 219 218 222 226 225 227 231 233 238 243 246 252 258 259 257 254 250 249 252 256 256 252 250 251 249 249 250 251 252 252 251 251 251 250 251 251 251 252 252 252 253 254 254 256 259 261 264
162 155 170 213 194 142 117 74 40 79 166 166 154 157 160 156 152 157 168 177 190 206 213 219 225 227 231 231 217 208 206 200 200 207 215 220 225 226 228 228 226 229 233 233 233 235 236 240 244 249 256 260 261 260 259 257 256 254 253 252 250 249 249 250 252 254 254 255 256 256 256 256 255 255 254 254 254 254 253 254 254 253 255 259 261 263
125 147 162 146 130 116 130 186 113 108 165 193 192 175 170 168 166 178 201 203 206 213 220 226 230 230 230 223 208 201 201 203 208 217 224 228 233 234 235 236 235 235 236 236 237 238 239 244 248 253 259 262 262 261 260 259 260 258 254 251 250 249 250 251 254 256 258 259 259 259 260 260 259 258 257 256 256 255 254 254 254 253 254 256 258 259
142 172 152 113 162 211 188 172 171 134 130 198 201 188 177 177 188 206 217 217 216 220 226 229 226 220 214 211 207 207 210 212 215 220 224 228 231 235 240 243 242 239 236 236 237 238 241 247 252 256 260 262 261 260 260 260 261 261 259 255 252 251 251 253 255 257 259 261 262 263 263 263 262 261 259 257 255 254 253 253 252 251 252 253 254 256
180 191 155 143 191 232 160 167 171 137 77 184 194 189 183 190 205 216 221 222 223 225 227 225 220 215 211 209 212 216 218 222 225 228 230 231 231 233 238 243 246 244 240 238 238 241 245 249 254 259 262 264 262 261 262 263 263 263 263 261 258 255 254 254 256 258 260 263 265 266 266 265 264 263 260 258 256 253 252 251 251 250 251 253 254 256